MACSAT 2 (M 2) 1 20608U 90043B 08133.41755418 .00000062 00000-0 67817-5 0 3864 2 20608 89.7446 94.7855 0091917 243.0274 116.1545 14.71897574964402 TUBSAT A 1 21577U 91050D 08133.60516316 .00000028 00000-0 23279-4 0 1911 2 21577 98.4168 81.2294 0006581 159.1318 201.0140 14.38502304882617 S80/T 1 22078U 92052C 08130.35013274 -.00000037 00000-0 10000-3 0 5827 2 22078 66.0846 86.3816 0004065 164.1884 195.9203 12.86720265739782 HEALTHSAT 1 1 22827U 93061E 08132.80180191 -.00000013 00000-0 11337-4 0 9817 2 22827 98.3703 96.0787 0008739 348.2383 11.8600 14.30120004762857 TUBSAT B 1 22970U 94003B 08133.82102507 .00000051 00000-0 10000-3 0 7893 2 22970 82.5608 72.2146 0016235 163.5180 196.6431 13.16911758687287 CERISE 1 23606U 95033B 08133.10694327 .00000253 00000-0 36684-4 0 4563 2 23606 98.2138 234.9173 0005741 338.7628 21.3328 14.84678014692350 UPM/LBSAT 1 23607U 95033C 08133.62793223 -.00000084 00000-0 -46735-5 0 8169 2 23607 98.2166 208.1689 0007102 91.8043 268.3983 14.74671668690016 FAISAT 2V 1 24954U 97052B 08132.92917508 .00000025 00000-0 92374-5 0 1890 2 24954 82.9195 255.8196 0039214 175.9400 184.2084 13.79631941535342 MUBLCOM 1 25736U 99026B 08133.10199331 .00000172 00000-0 60834-4 0 4430 2 25736 97.7256 93.6089 0004807 201.6103 158.4879 14.44433184472896 RUBIN-3 & SL-8 R/B 1 27561U 02054C 08133.52402605 .00000113 00000-0 36874-4 0 3701 2 27561 97.9704 343.0206 0048742 46.0555 314.4648 14.53545286289302 APRIZESAT 2 (LATINSAT D) 1 28366U 04025A 08133.57789455 -.00000037 00000-0 20525-5 0 1027 2 28366 98.0817 149.2389 0108567 292.8936 66.0816 14.35539789202759 SAUDICOMSAT 1 1 28369U 04025D 08133.65264687 -.00000056 00000-0 -31307-5 0 1183 2 28369 98.0716 183.3448 0033578 204.9734 154.9839 14.50592887204887 SAUDICOMSAT 2 1 28370U 04025E 08133.09397963 -.00000015 00000-0 76682-5 0 1254 2 28370 98.0634 171.1891 0058208 232.6910 126.8970 14.45693816204114 APRIZESAT 1 (LATINSAT C) 1 28372U 04025G 08133.62296403 .00000002 00000-0 11894-4 0 1115 2 28372 98.0646 177.2433 0046549 218.4998 141.2883 14.48126324204528 NANOSAT-1 1 28493U 04049B 08132.93000252 .00000167 00000-0 36148-4 0 584 2 28493 98.2096 84.2319 0005968 86.1097 274.0794 14.70227121182201 SAUDICOMSAT 7 1 31119U 07012C 08133.21490032 .00000385 00000-0 88724-4 0 3321 2 31119 98.0429 202.7380 0063345 73.4775 287.3350 14.59382530 57016 SAUDICOMSAT 6 1 31121U 07012E 08133.22676733 .00000365 00000-0 89075-4 0 3338 2 31121 98.0406 200.8641 0080406 78.4288 282.5917 14.56262208 56903 SAUDICOMSAT 5 1 31124U 07012H 08133.20488834 .00000398 00000-0 89121-4 0 3363 2 31124 98.0442 203.7472 0054784 71.0620 289.6485 14.60959669 57075 SAUDICOMSAT 3 1 31125U 07012J 08133.74727617 .00000409 00000-0 88749-4 0 3412 2 31125 98.0455 205.2305 0046395 67.0852 293.5206 14.62510725 57212 SAUDICOMSAT 4 1 31127U 07012L 08133.13162797 .00000379 00000-0 89803-4 0 3349 2 31127 98.0423 201.7731 0071665 76.0910 284.8222 14.57901211 56944